[[{"header":{"parameterUnit":"m.s-1","parameterCategory":1,"la1":30.2991,"la2":30.254,"lo1":-89.0895,"lo2":-89.0444,"dy":0.0017,"dx":0.0017,"nx":28,"ny":28,"refTime":"2024-07-15T21:00:00:Z","depth":0,"parameterNumber":2,"parameterNumberName":"U-component_of_WINDS"},"data":[0,0,0,0,0,0,0,0,0,0,0,0,0,0,0,0,0,0,0,0,0,0,0,0,0,0,0,0,0,0,0,0,0,0,0,0,0,0,0,0,0,0,0,0,0,0,0,0,0,0,0,0,0,0,0,0,0,0,2.7879,2.788,0,2.7962,2.7963,2.7964,2.797,2.7969,2.7968,2.7967,2.8055,2.8058,2.8061,0,0,0,0,0,0,0,0,0,0,0,0,0,2.7727,2.773,2.7879,2.788,2.7881,2.7962,2.7963,2.7965,2.797,2.7969,2.7968,2.7967,2.8054,2.8058,2.8062,0,0,0,0,0,0,0,0,0,0,0,0,0,2.78,2.7731,2.7878,2.7893,2.7896,2.7962,2.7963,2.7965,2.7971,2.7969,2.7968,2.7966,2.8053,2.8058,2.8062,2.812,0,0,2.8077,2.8079,0,0,0,0,0,0,0,0,2.7796,2.7806,2.789,2.7893,2.7895,2.7954,2.7942,2.8017,2.7971,2.7942,2.7967,2.7966,2.8023,2.803,2.8049,2.8124,2.8128,2.8077,2.808,2.8082,2.8084,0,0,0,0,0,0,0,2.7791,2.7802,2.7912,2.7891,2.7894,2.7897,2.7906,2.7956,2.7989,2.7945,2.7945,2.7955,2.8024,2.8044,2.8051,2.8129,2.8077,2.8082,2.8085,2.8086,2.8258,2.826,0,0,0,0,0,0,2.7783,2.7798,2.7909,2.7914,2.7841,2.7901,2.7911,2.7937,2.7989,2.7995,2.7956,2.7955,2.8037,2.8045,2.8054,2.8126,2.8082,2.8087,2.809,2.8257,2.8259,2.8261,0,0,0,0,0,0,2.7779,2.7792,2.7906,2.7856,2.7871,2.7905,2.7934,2.7939,2.7959,2.7998,2.8004,2.797,2.8036,2.8047,2.8104,2.813,2.8089,2.8093,2.8255,2.8257,2.826,2.8271,0,0,0,0,0,0,2.7775,2.7791,2.7813,2.7857,2.7874,2.7953,2.7936,2.7942,2.7967,2.7967,2.8013,2.8019,2.8036,2.8097,2.8109,2.8135,2.8097,2.8253,2.8256,2.8259,2.8268,2.8273,2.8278,0,0,0,0,0,2.7769,2.7812,2.7814,2.7827,2.7901,2.7955,2.7964,2.7982,2.7969,2.7992,2.8017,2.8018,2.8125,2.8102,2.8116,2.8145,2.8251,2.8255,2.8259,2.8266,2.8272,2.8277,0,0,0,0,0,0,2.777,2.7818,2.782,2.7878,2.7912,2.7955,2.7984,2.7988,2.8026,2.8024,2.8045,2.8056,2.8112,2.8134,2.8108,2.8204,2.8187,2.8193,2.8188,2.8194,2.8199,2.8192,2.8101,0,0,0,0,0,2.7777,2.7816,2.7856,2.7904,2.7921,2.795,2.7974,2.7985,2.8021,2.8035,2.8064,2.81,2.8142,2.8169,2.821,2.8272,2.8283,2.8298,2.8303,2.8306,2.8312,2.8348,2.8356,2.8273,2.8273,2.8273,0,0,2.7792,2.7823,2.7846,2.7905,2.7932,2.7973,2.7962,2.8005,2.8036,2.8042,2.8097,2.812,2.8162,2.8222,2.8249,2.8242,2.8338,2.8311,2.8314,2.8318,2.8353,2.8361,2.8367,2.8276,2.8275,2.8275,0,0,2.784,2.7867,2.791,2.7938,2.798,2.8,2.801,2.8053,2.8068,2.8124,2.813,2.8168,2.8239,2.8269,2.8294,2.8355,2.8358,2.8368,2.8393,2.8427,2.8434,2.844,2.8463,2.8471,2.8373,2.8374,2.8374,0,2.7853,2.7914,2.7932,2.7976,2.8002,2.801,2.8055,2.8081,2.8135,2.8153,2.8144,2.8235,2.8263,2.8331,2.8346,2.8365,2.8379,2.8363,2.8431,2.8438,2.8443,2.8465,2.8474,2.8375,2.8374,2.8374,2.8374,0,2.7929,2.7971,2.8002,2.8053,2.8083,2.8127,2.8153,2.8181,2.819,2.821,2.8268,2.8303,2.8351,2.8368,2.8377,2.8438,2.8432,2.8427,2.841,2.8452,2.8473,2.8482,2.8376,2.8376,2.8375,2.8375,0,0,2.7979,2.804,2.8051,2.8075,2.8123,2.8157,2.8202,2.8249,2.8274,2.8311,2.835,2.8411,2.8407,2.8435,2.8448,2.8479,2.8527,2.847,2.8471,2.848,2.8597,2.8601,2.861,2.8529,2.8531,2.8532,2.8594,0,2.8032,2.8112,2.8131,2.82,2.824,2.8249,2.8289,2.8323,2.8344,2.8382,2.8406,2.8449,2.844,2.8457,2.8488,2.8514,2.8551,2.851,2.8567,2.8569,2.8556,2.8621,2.8625,2.8682,2.8602,2.8604,2.8605,0,2.8105,2.8144,2.8217,2.8261,2.8279,2.8314,2.836,2.8396,2.8436,2.8449,2.8481,2.8491,2.854,2.8521,2.859,2.8562,2.8586,2.8603,2.8606,2.8612,2.8589,2.863,2.87,2.8709,2.8618,2.8617,2.8616,0,2.8135,2.8206,2.8259,2.8279,2.8332,2.8357,2.838,2.8418,2.8446,2.8487,2.8505,2.8551,2.8576,2.8612,2.8635,2.8618,2.8702,2.8684,2.8715,2.8715,2.8732,2.8731,2.8808,2.8748,2.8748,2.8748,2.8747,0,2.8193,2.8238,2.8273,2.8306,2.8357,2.8379,2.8429,2.8452,2.8487,2.8525,2.8536,2.8572,2.86,2.864,2.8659,2.8714,2.8725,2.8738,2.8742,2.8737,2.8735,2.8753,2.875,2.875,2.8749,2.8749,2.8748,0,2.8235,2.8261,2.8319,2.8365,2.8377,2.8413,2.8452,2.8485,2.8507,2.8556,2.8568,2.8603,2.8651,2.8678,2.8738,2.8751,2.8812,2.8814,2.8799,2.8801,2.8831,2.8828,2.8922,2.8936,2.8866,2.8867,2.8867,0,2.8271,2.8305,2.8354,2.8381,2.8404,2.8447,2.8475,2.8499,2.8528,2.8577,2.8605,2.8654,2.8694,2.8771,2.8802,2.8849,2.8853,2.8883,2.886,2.8854,2.8854,2.8852,2.8856,2.8887,2.8887,2.8888,2.8888,0,2.8331,2.8342,2.8383,2.8428,2.8462,2.8499,2.8536,2.8557,2.8587,2.862,2.8669,2.87,2.8763,2.8812,2.8861,2.8887,2.8893,2.8895,2.8905,2.89,2.889,2.8897,2.881,2.8893,2.8893,2.8892,2.8892,2.8892,2.8371,2.8403,2.8443,2.8488,2.8518,2.8553,2.8586,2.8613,2.8654,2.8706,2.8718,2.877,2.8812,2.8879,2.8906,2.8948,2.8942,2.8956,2.896,2.8963,2.8965,2.8883,2.8957,2.8957,2.8957,2.8957,2.8957,0,2.8433,2.846,2.8501,2.8552,2.8588,2.8591,2.8632,2.8662,2.8708,2.8746,2.8785,2.8843,2.8891,2.8927,2.8976,2.9003,2.9007,2.9015,2.9014,2.902,2.8967,2.8953,2.9011,2.9011,2.9011,2.9011,2.9011,2.9011,2.8469,2.8524,2.854,2.861,2.8636,2.8687,2.8711,2.8744,2.8774,2.8837,2.8877,2.89,2.8937,2.899,2.9034,2.9044,2.9062,2.9069,2.9079,2.9029,2.9023,2.9018,2.9005,2.9073,2.9073,2.9129,2.9129,2.913]},{"header":{"parameterUnit":"m.s-1","parameterCategory":1,"la1":30.2991,"la2":30.254,"lo1":-89.0895,"lo2":-89.0444,"dy":0.0017,"dx":0.0017,"nx":28,"ny":28,"refTime":"2024-07-15T21:00:00:Z","depth":0,"parameterNumber":3,"parameterNumberName":"V-component_of_WINDS"},"data":[0,0,0,0,0,0,0,0,0,0,0,0,0,0,0,0,0,0,0,0,0,0,0,0,0,0,0,0,0,0,0,0,0,0,0,0,0,0,0,0,0,0,0,0,0,0,0,0,0,0,0,0,0,0,0,0,0,0,-0.1656,-0.1656,0,-0.167,-0.167,-0.167,-0.1668,-0.1668,-0.1668,-0.1667,-0.1682,-0.1683,-0.1683,0,0,0,0,0,0,0,0,0,0,0,0,0,-0.1629,-0.163,-0.1656,-0.1656,-0.1656,-0.167,-0.167,-0.167,-0.1668,-0.1668,-0.1668,-0.1667,-0.1682,-0.1683,-0.1684,0,0,0,0,0,0,0,0,0,0,0,0,0,-0.1642,-0.163,-0.1656,-0.1657,-0.1657,-0.167,-0.167,-0.167,-0.1668,-0.1668,-0.1667,-0.1667,-0.1682,-0.1683,-0.1684,-0.1696,0,0,-0.1686,-0.1687,0,0,0,0,0,0,0,0,-0.1641,-0.1643,-0.1657,-0.1657,-0.1657,-0.1667,-0.1666,-0.1679,-0.1668,-0.1664,-0.1667,-0.1667,-0.1677,-0.1679,-0.1682,-0.1697,-0.1698,-0.1687,-0.1687,-0.1688,-0.1688,0,0,0,0,0,0,0,-0.164,-0.1642,-0.1661,-0.1657,-0.1657,-0.1657,-0.1659,-0.1668,-0.1673,-0.1664,-0.1664,-0.1666,-0.1678,-0.1681,-0.1682,-0.1698,-0.1687,-0.1687,-0.1688,-0.1688,-0.1726,-0.1726,0,0,0,0,0,0,-0.1639,-0.1642,-0.1661,-0.1662,-0.1648,-0.1658,-0.1659,-0.1664,-0.1672,-0.1673,-0.1666,-0.1666,-0.168,-0.1681,-0.1683,-0.1699,-0.1687,-0.1688,-0.1689,-0.1725,-0.1726,-0.1726,0,0,0,0,0,0,-0.1638,-0.1641,-0.166,-0.1652,-0.1654,-0.1659,-0.1664,-0.1665,-0.1668,-0.1674,-0.1675,-0.1669,-0.168,-0.1682,-0.1693,-0.17,-0.1689,-0.169,-0.1725,-0.1725,-0.1726,-0.1732,0,0,0,0,0,0,-0.1638,-0.1641,-0.1645,-0.1652,-0.1655,-0.167,-0.1664,-0.1665,-0.167,-0.1669,-0.1677,-0.1678,-0.168,-0.1692,-0.1694,-0.1701,-0.169,-0.1724,-0.1725,-0.1726,-0.1731,-0.1733,-0.1734,0,0,0,0,0,-0.1637,-0.1646,-0.1645,-0.1647,-0.166,-0.167,-0.1672,-0.1674,-0.167,-0.1675,-0.1679,-0.1677,-0.1699,-0.1693,-0.1696,-0.1703,-0.1724,-0.1725,-0.1726,-0.173,-0.1732,-0.1734,0,0,0,0,0,0,-0.164,-0.1647,-0.1646,-0.1657,-0.1663,-0.167,-0.1676,-0.1675,-0.1683,-0.1682,-0.1684,-0.1686,-0.1698,-0.1701,-0.1695,-0.1716,-0.1711,-0.1712,-0.1714,-0.1715,-0.1717,-0.1716,-0.1691,0,0,0,0,0,-0.1641,-0.1649,-0.1655,-0.1664,-0.1667,-0.1671,-0.1676,-0.1677,-0.1683,-0.1685,-0.169,-0.1697,-0.1705,-0.171,-0.1718,-0.1732,-0.1734,-0.1738,-0.1739,-0.174,-0.1742,-0.1751,-0.1753,-0.173,-0.173,-0.173,0,0,-0.1646,-0.165,-0.1655,-0.1665,-0.167,-0.1678,-0.1673,-0.1682,-0.1688,-0.1687,-0.1698,-0.1702,-0.171,-0.1723,-0.1729,-0.1726,-0.1749,-0.1742,-0.1743,-0.1743,-0.1752,-0.1754,-0.1756,-0.173,-0.173,-0.173,0,0,-0.1657,-0.1661,-0.167,-0.1675,-0.1682,-0.1685,-0.1687,-0.1694,-0.1697,-0.1709,-0.1708,-0.1716,-0.173,-0.1736,-0.1741,-0.1756,-0.1755,-0.1759,-0.1766,-0.1775,-0.1777,-0.1778,-0.1785,-0.1787,-0.176,-0.176,-0.176,0,-0.1662,-0.1673,-0.1675,-0.1684,-0.1689,-0.1688,-0.1698,-0.1703,-0.1712,-0.1716,-0.1713,-0.1732,-0.1737,-0.1752,-0.1756,-0.1759,-0.1763,-0.1758,-0.1776,-0.1778,-0.1779,-0.1786,-0.1788,-0.176,-0.176,-0.176,-0.176,0,-0.1679,-0.1687,-0.1694,-0.1703,-0.1709,-0.1718,-0.1722,-0.1728,-0.1729,-0.1732,-0.1745,-0.1751,-0.176,-0.1764,-0.1765,-0.178,-0.1778,-0.1775,-0.177,-0.1782,-0.1788,-0.179,-0.1761,-0.1761,-0.1761,-0.1761,0,0,-0.1692,-0.1703,-0.1706,-0.171,-0.1719,-0.1726,-0.1736,-0.1745,-0.1751,-0.1758,-0.1767,-0.1779,-0.1777,-0.1783,-0.1784,-0.1792,-0.1805,-0.1789,-0.1789,-0.1792,-0.1824,-0.1826,-0.1828,-0.1805,-0.1805,-0.1806,-0.1823,0,-0.1705,-0.1722,-0.1725,-0.174,-0.1749,-0.1749,-0.1757,-0.1764,-0.1768,-0.1776,-0.178,-0.179,-0.1786,-0.179,-0.1797,-0.1802,-0.1812,-0.1801,-0.1814,-0.1815,-0.1813,-0.1831,-0.1834,-0.185,-0.1826,-0.1826,-0.1826,0,-0.1723,-0.1731,-0.1747,-0.1755,-0.1759,-0.1767,-0.1777,-0.1784,-0.1792,-0.1795,-0.1801,-0.1802,-0.1814,-0.1808,-0.1824,-0.1816,-0.1822,-0.1826,-0.1826,-0.1828,-0.1821,-0.1834,-0.1855,-0.1858,-0.183,-0.1829,-0.1829,0,-0.1732,-0.1747,-0.1758,-0.1763,-0.1773,-0.1778,-0.1783,-0.179,-0.1797,-0.1805,-0.1809,-0.1819,-0.1825,-0.1833,-0.1837,-0.1832,-0.1854,-0.1848,-0.1857,-0.1857,-0.1861,-0.1861,-0.1884,-0.1864,-0.1864,-0.1864,-0.1864,0,-0.1747,-0.1757,-0.1763,-0.177,-0.1782,-0.1785,-0.1797,-0.1802,-0.1809,-0.1818,-0.1818,-0.1827,-0.1832,-0.1841,-0.1844,-0.1858,-0.186,-0.1863,-0.1864,-0.1864,-0.1863,-0.1868,-0.1867,-0.1865,-0.1864,-0.1864,-0.1864,0,-0.1759,-0.1763,-0.1777,-0.1785,-0.1788,-0.1796,-0.1804,-0.1812,-0.1816,-0.1827,-0.183,-0.1837,-0.1848,-0.1853,-0.1867,-0.1869,-0.1886,-0.1885,-0.1883,-0.1883,-0.1892,-0.1892,-0.1919,-0.1923,-0.19,-0.19,-0.1901,0,-0.1769,-0.1777,-0.1786,-0.1792,-0.1797,-0.1807,-0.1813,-0.1817,-0.1824,-0.1834,-0.1841,-0.1852,-0.1862,-0.188,-0.1887,-0.1898,-0.1898,-0.1907,-0.19,-0.19,-0.19,-0.1899,-0.1901,-0.1909,-0.1909,-0.1909,-0.1909,0,-0.1785,-0.1787,-0.1796,-0.1806,-0.1814,-0.1822,-0.183,-0.1835,-0.184,-0.1848,-0.186,-0.1867,-0.1882,-0.1893,-0.1905,-0.1911,-0.1911,-0.1911,-0.1914,-0.1914,-0.1913,-0.1915,-0.1887,-0.1911,-0.1911,-0.191,-0.191,-0.191,-0.1797,-0.1805,-0.1813,-0.1823,-0.183,-0.1838,-0.1846,-0.1851,-0.1861,-0.1873,-0.1875,-0.1887,-0.1897,-0.1913,-0.1919,-0.193,-0.1928,-0.1931,-0.1932,-0.1934,-0.1935,-0.1911,-0.1932,-0.1932,-0.1932,-0.1932,-0.1932,0,-0.1815,-0.182,-0.183,-0.1841,-0.1849,-0.1849,-0.1858,-0.1865,-0.1877,-0.1885,-0.1895,-0.1909,-0.1921,-0.1928,-0.1941,-0.1948,-0.1949,-0.1951,-0.1951,-0.1953,-0.1935,-0.1932,-0.195,-0.195,-0.195,-0.195,-0.195,-0.195,-0.1825,-0.1838,-0.1841,-0.1858,-0.1863,-0.1876,-0.1881,-0.1889,-0.1896,-0.1912,-0.1922,-0.1927,-0.1935,-0.1948,-0.196,-0.1962,-0.1967,-0.1969,-0.1972,-0.1955,-0.1954,-0.1952,-0.1949,-0.197,-0.197,-0.1988,-0.1988,-0.1988]}]]